#timestamp,LO_Frequency,Hit 
1504663215.1,286047017.5,N
1504663235.9,286047018.3,N
1504663255.7,286047018.7,N
1504663275.5,286047019.1,N
1504663295.4,286047019.5,N
1504663315.2,286047020.0,N
1504663335.0,286047017.4,N
1504663335.9,286047017.4,N
1504663355.8,286047016.2,N
1504663375.6,286047016.3,P
1504663395.4,286047000.9,N
1504663415.3,286047000.0,N
1504663435.1,286047000.0,N
1504663436.0,286047000.0,N
1504663455.8,286046999.8,N
1504663475.7,286047001.5,N
1504663495.5,286047002.8,N
1504663515.3,286047001.8,N
1504663535.1,286047001.8,N
1504663555.9,286047006.9,N
1504663575.7,286047005.6,N
1504663595.5,286047001.8,N
1504663615.4,286047002.0,N
1504663635.2,286046999.8,N
1504663655.0,286047002.4,N
1504663655.9,286047002.4,N
1504663675.8,286047004.4,N
1504663695.6,286047005.4,N
1504663715.4,286047004.6,N
1504663735.3,286047004.1,N
1504663755.1,286047005.9,N
1504663756.0,286047005.9,N
1504663775.8,286047003.6,N
1504663795.7,286047004.3,N
1504663815.5,286047006.7,N
1504663835.3,286047009.0,N
1504663855.2,286047003.6,N
1504663875.9,286046999.4,N
1504663895.7,286046995.1,N
1504663915.5,286046994.2,N
1504663935.4,286046990.8,N
1504663955.2,286046990.3,N
1504663975.0,286046989.4,N
1504663975.9,286046989.4,N
1504663995.8,286046987.6,N
1504664015.6,286046990.6,N
1504664035.4,286046993.2,N
1504664055.3,286046991.5,N
1504664075.1,286046987.2,N
1504664095.8,286046985.2,N
1504664115.7,286046981.6,N
1504664135.5,286046978.9,N
1504664155.3,286046981.6,N
1504664175.2,286046981.2,N
1504664195.9,286046980.8,N
1504664215.7,286046983.5,N
1504664235.6,286046983.3,N
1504664255.4,286046982.7,N
1504664275.2,286046981.9,N
1504664295.0,286046980.5,N
1504664295.9,286046980.5,N
1504664315.8,286046980.0,N
1504664335.6,286046978.0,N
1504664355.4,286046978.5,N
1504664375.3,286046978.5,N
1504664395.1,286046978.7,N
1504664415.8,286046976.5,P
1504664435.7,286046990.7,N
1504664455.5,286046989.4,N
1504664475.3,286046987.6,N
1504664495.2,286046987.9,N
1504664515.9,286046989.4,N
1504664535.7,286046991.5,N
1504664555.6,286046989.8,N
1504664575.4,286046985.3,P
1504664595.2,286046998.3,N
1504664615.1,286046998.7,N
1504664616.0,286046998.7,N
1504664635.8,286047001.2,N
1504664655.6,286047000.4,N
1504664675.5,286047001.1,N
1504664695.3,286046998.5,N
1504664715.1,286047001.1,N
1504664735.9,286046996.5,N
1504664755.7,286047004.4,N
1504664775.5,286047006.4,N
1504664795.3,286047012.4,N
1504664815.2,286047014.1,N
1504664835.0,286047019.5,N
1504664835.9,286047019.5,N
1504664855.7,286047022.1,N
1504664875.6,286047025.1,N
1504664895.4,286047024.9,N
1504664915.2,286047026.8,N
1504664935.1,286047024.1,N
1504664936.0,286047024.1,N
1504664955.8,286047022.3,N
1504664975.6,286047020.5,N
1504664995.5,286047021.9,N
1504665015.3,286047021.3,N
1504665035.1,286047022.4,N
1504665055.9,286047026.7,N
1504665075.7,286047023.4,N
1504665095.5,286047022.4,N
1504665115.3,286047026.2,N
1504665135.2,286047026.3,N
1504665155.0,286047025.2,N
1504665155.9,286047025.2,N
1504665175.7,286047024.6,N
1504665195.6,286047024.7,N
1504665215.4,286047026.7,N
1504665235.2,286047025.8,N
1504665255.1,286047027.6,P
1504665256.0,286047027.6,P
1504665275.8,286047008.0,N
1504665295.6,286047006.7,N
1504665315.5,286047005.3,N
1504665335.3,286047007.6,N
1504665355.1,286047005.5,N
1504665375.9,286047005.1,N
1504665395.7,286047005.3,N
1504665415.5,286047007.5,N
1504665435.4,286047006.7,N
1504665455.2,286047006.3,N
1504665475.0,286047003.8,N
1504665475.9,286047003.8,N
1504665495.8,286047003.1,N
1504665515.6,286047002.2,N
1504665535.4,286047001.8,N
1504665555.3,286047005.6,N
1504665575.1,286047005.8,N
1504665576.0,286047005.8,N
1504665595.8,286047005.1,N
1504665615.6,286047005.8,N
1504665635.5,286047004.8,N
1504665655.3,286047007.3,N
1504665675.1,286047007.6,N
1504665695.9,286047008.0,N
1504665715.7,286047008.3,N
1504665735.5,286047008.8,N
1504665755.4,286047006.6,N
1504665775.2,286047006.9,N
1504665795.0,286047008.9,N
1504665795.9,286047008.9,N
1504665815.8,286047003.9,N
1504665835.6,286047000.1,N
1504665855.4,286046999.2,N
1504665875.3,286046997.7,N
1504665895.1,286046995.3,N
1504665896.0,286046995.3,N
1504665915.8,286046995.2,N
1504665935.7,286046996.2,N
1504665955.5,286046995.7,N
1504665975.3,286046993.7,N
1504665995.1,286046994.8,N
1504666015.9,286046991.3,N
1504666035.7,286046990.5,N
1504666055.5,286046992.0,N
1504666075.4,286046992.4,N
1504666095.2,286046996.2,N
1504666115.0,286046994.0,N
1504666115.9,286046994.0,N
1504666135.8,286046992.5,N
1504666155.6,286046991.3,N
1504666175.4,286046987.6,N
1504666195.3,286046983.7,N
1504666215.1,286046986.1,N
1504666216.0,286046986.1,N
1504666235.8,286046983.7,N
1504666255.7,286046986.3,N
1504666275.5,286046986.3,N
1504666295.3,286046982.5,N
1504666315.2,286046986.8,N
1504666335.9,286046983.8,N
1504666355.7,286046982.6,P
1504666375.6,286046990.1,N
1504666395.4,286046991.0,N
1504666415.2,286046991.3,N
1504666435.1,286046990.5,N
1504666436.0,286046990.5,P
1504666455.8,286046999.1,N
1504666475.6,286046997.0,N
1504666495.5,286047002.6,N
1504666515.3,286047002.7,N
1504666535.1,286046996.5,N
1504666555.9,286046997.0,N
1504666575.7,286046996.0,N
1504666595.5,286046994.1,N
1504666615.3,286046993.2,N
1504666635.2,286046992.5,N
1504666655.0,286046993.5,N
1504666655.9,286046993.5,N
1504666675.7,286046993.4,N
1504666695.6,286046993.5,N
1504666715.4,286046995.8,N
1504666735.2,286046996.9,N
1504666755.1,286047003.5,N
1504666756.0,286047003.5,N
1504666775.8,286047008.0,N
1504666795.6,286047012.1,N
